TimeCDT,TemperatureF,Dew PointF,Humidity,Sea Level PressureIn,VisibilityMPH,Wind Direction,Wind SpeedMPH,Gust SpeedMPH,PrecipitationIn,Events,Conditions,WindDirDegrees,DateUTC
12:52 AM,68.0,64.0,87,29.85,10.0,SSE,6.9,-,N/A,,Clear,150,2013-06-25 05:52:00
1:52 AM,69.1,66.0,90,29.82,10.0,South,6.9,-,N/A,,Clear,170,2013-06-25 06:52:00
2:52 AM,69.1,66.9,93,29.83,10.0,South,6.9,-,N/A,,Clear,170,2013-06-25 07:52:00
3:52 AM,68.0,66.9,96,29.82,8.0,SSE,5.8,-,N/A,,Partly Cloudy,150,2013-06-25 08:52:00
4:52 AM,70.0,68.0,93,29.80,8.0,South,9.2,-,N/A,,Mostly Cloudy,180,2013-06-25 09:52:00
5:36 AM,69.8,68.0,94,29.83,8.0,SW,4.6,-,N/A,Thunderstorm,Thunderstorm,220,2013-06-25 10:36:00
5:52 AM,70.0,68.0,93,29.81,8.0,South,9.2,-,0.01,Rain-Thunderstorm,Light Thunderstorms and Rain,190,2013-06-25 10:52:00
6:12 AM,71.6,68.0,88,29.82,8.0,South,6.9,-,0.00,,Mostly Cloudy,170,2013-06-25 11:12:00
6:52 AM,71.1,69.1,93,29.82,6.0,South,6.9,-,0.00,,Clear,190,2013-06-25 11:52:00
7:52 AM,72.0,69.1,91,29.86,5.0,NE,9.2,-,N/A,,Clear,50,2013-06-25 12:52:00
8:52 AM,73.0,71.1,93,29.87,6.0,ESE,6.9,-,N/A,,Clear,110,2013-06-25 13:52:00
9:52 AM,77.0,73.0,88,29.84,8.0,SSE,8.1,-,0.00,,Clear,160,2013-06-25 14:52:00
10:52 AM,79.0,73.0,82,29.83,8.0,South,11.5,19.6,N/A,,Clear,190,2013-06-25 15:52:00
11:52 AM,79.0,72.0,79,29.83,9.0,South,15.0,25.3,N/A,,Clear,190,2013-06-25 16:52:00
12:52 PM,80.1,72.0,76,29.80,9.0,South,10.4,18.4,N/A,,Clear,170,2013-06-25 17:52:00
1:52 PM,82.0,73.0,74,29.80,10.0,SSW,17.3,24.2,N/A,,Clear,210,2013-06-25 18:52:00
2:52 PM,82.0,73.0,74,29.80,9.0,SSW,10.4,20.7,N/A,,Partly Cloudy,200,2013-06-25 19:52:00
3:52 PM,84.0,73.0,69,29.78,10.0,SSW,10.4,-,N/A,,Clear,210,2013-06-25 20:52:00
4:52 PM,86.0,73.0,65,29.76,10.0,South,9.2,-,N/A,,Clear,190,2013-06-25 21:52:00
5:52 PM,84.9,73.9,69,29.75,10.0,South,4.6,-,N/A,,Clear,180,2013-06-25 22:52:00
6:52 PM,82.9,73.0,72,29.75,10.0,South,8.1,-,N/A,,Clear,180,2013-06-25 23:52:00
7:52 PM,81.0,73.0,77,29.76,10.0,South,8.1,-,N/A,,Scattered Clouds,180,2013-06-26 00:52:00
8:52 PM,79.0,72.0,79,29.75,10.0,South,5.8,-,N/A,,Clear,170,2013-06-26 01:52:00
9:52 PM,77.0,72.0,84,29.76,10.0,SSE,5.8,-,N/A,,Clear,160,2013-06-26 02:52:00
10:52 PM,77.0,72.0,84,29.75,10.0,SE,4.6,-,N/A,,Scattered Clouds,140,2013-06-26 03:52:00
11:52 PM,78.1,72.0,81,29.73,10.0,SSE,6.9,-,N/A,,Mostly Cloudy,150,2013-06-26 04:52:00